www.pogodaiklimat.ru

Погода и климат >> Архив погоды >> Индия >> Лакшадвип >> Остров Амини


ПОГОДА на Острове Амини

  • Прогноз погоды на Острове Амини
  • Монитор погоды на Острове Амини

АРХИВ ПОГОДЫ на Острове Амини

Время (UTC), дата Ветер
(напр.,м/с)
 
Видим.   Явления Облачность Т
(С)
Тd
(С)
f
(%)
Тe
(С)
Тes
(С)
Комфортность P
(гПа)
Po
(гПа)
Тmin
(С)
Tmax
(С)
R
(мм)
R24
(мм)
S
(см)
03 19.04 нст 1 10 км 6/6 600 м
[Sc]
+29.8 +24.4 73 +42 +45 опасность
перегрева
1009.7 1009.4 +25.6 +35.6
06 19.04 нст 1 10 км 5/5 600 м
[Sc]
+34.2 +24.3 56 +46 +59 опасность
перегрева
1010.3 1010.0
09 19.04 нст 1 10 км 5/5 600 м
[Sc]
+35.0 +24.5 55 +48 +58 опасность
перегрева
1008.0 1007.7
12 19.04 З 1 10 км 6/6 600 м
[Sc]
+34.0 +25.0 59 +47 +48 опасность
перегрева
1007.0 1006.7 +35.6
15 19.04 нст 1 4000 м 4/4 600 м
[Sc]
+29.8 +25.0 75 +43 +43 опасность
перегрева
1009.1 1008.8
18 19.04 нст 1 4000 м 5/5 600 м
[Sc]
+29.0 +24.7 78 +41 +41 опасность
перегрева
1010.0 1009.7
21 19.04 нст 1 4000 м 4/4 600 м
[Sc]
+28.2 +24.8 82 +40 +40 очень
душно
1009.2 1008.9
00 20.04 нст 1 4000 м 4/4 600 м
[Sc]
+28.0 +24.6 82 +40 +40 очень
душно
1007.2 1006.9
03 20.04 штиль 0 10 км 5/5 600 м
[Sc]
+30.0 +24.9 74 +43 +47 опасность
перегрева
1008.9 1008.6 +25.4 +35.6
06 20.04 штиль 0 10 км 6/6 600 м
[Sc]
+34.0 +24.7 58 +47 +58 опасность
перегрева
1009.3 1009.0
09 20.04 З 1 10 км 6/6 600 м
[Sc]
+34.8 +25.3 58 +49 +57 опасность
перегрева
1007.1 1006.8
12 20.04 З 1 10 км 5/5 600 м
[Sc]
+33.2 +23.8 58 +45 +46 опасность
перегрева
1005.5 1005.2 +35.2
15 20.04 нст 1 4000 м 4/4 600 м
[Sc]
+29.8 +24.7 74 +42 +42 опасность
перегрева
1007.5 1007.2
18 20.04 З 1 4000 м 5/5 600 м
[Sc]
+29.4 +24.5 75 +42 +42 опасность
перегрева
1008.5 1008.2
21 20.04 З 1 4000 м 4/4 600 м
[Sc]
+29.0 +24.7 78 +41 +41 опасность
перегрева
1007.0 1006.7
00 21.04 нст 1 4000 м 5/5 600 м
[Sc]
+28.6 +24.6 79 +41 +41 опасность
перегрева
1006.7 1006.4
03 21.04 штиль 0 10 км 5/5 600 м
[Sc]
+30.4 +25.0 73 +44 +47 опасность
перегрева
1009.1 1008.8 +26.2 +35.2
06 21.04 штиль 0 10 км 6/6 600 м
[Sc]
+32.2 +24.2 63 +44 +55 опасность
перегрева
1009.7 1009.4
09 21.04 нст 2 10 км 5/5 600 м
[Sc]
+33.2 +24.7 61 +46 +56 опасность
перегрева
1007.3 1007.0
12 21.04 нст 1 10 км 5/5 600 м
[Sc]
+32.8 +24.9 63 +46 +48 опасность
перегрева
1005.9 1005.6 +34.2
15 21.04 ЮЗ 1 4000 м 5/5 600 м
[Sc]
+29.8 +25.0 75 +43 +43 опасность
перегрева
1007.2 1006.9
18 21.04 штиль 0 4000 м 6/6 600 м
[Sc]
+29.4 +25.1 78 +43 +43 опасность
перегрева
1009.6 1009.3
21 21.04 штиль 0 4000 м 5/5 600 м
[Sc]
+29.2 +25.2 79 +42 +42 опасность
перегрева
1006.4 1006.1
00 22.04 штиль 0 4000 м 5/5 600 м
[Sc]
+28.4 +24.1 78 +40 +40 очень
душно
1006.1 1005.8
03 22.04 нст 2 10 км 6/6 600 м
[Sc]
+29.2 +24.3 75 +41 +43 опасность
перегрева
1008.0 1007.7 +25.8 +34.2
06 22.04 нст 2 10 км 5/5 600 м
[Sc]
+34.2 +24.9 58 +47 +57 опасность
перегрева
1008.6 1008.3
09 22.04 нст 1 10 км 5/5 600 м
[Sc]
+35.2 +25.7 58 +50 +61 опасность
перегрева
1006.9 1006.6
12 22.04 нст 1 10 км 5/5 600 м
[Sc]
+33.4 +26.2 66 +50 +51 опасность
перегрева
1005.8 1005.5 +35.9
15 22.04 З 2 4000 м 5/5 600 м
[Sc]
+29.8 +25.9 80 +45 +45 опасность
перегрева
1006.5 1006.2
18 22.04 З 1 4000 м 5/5 600 м
[Sc]
+29.6 +26.1 82 +45 +45 опасность
перегрева
1008.5 1008.2
21 22.04 нст 1 4000 м 5/5 600 м
[Sc]
+29.0 +24.7 78 +41 +41 опасность
перегрева
1006.7 1006.4
00 23.04 штиль 0 4000 м 4/4 600 м
[Sc]
+28.4 +25.0 82 +41 +41 опасность
перегрева
1007.7 1007.4
03 23.04 штиль 0 н/о +30.4 +25.6 76 +45 +49 опасность
перегрева
1010.6 1010.3 +25.8 +35.9
06 23.04 З 2 10 км 5/5 600 м
[Sc]
+32.2 +25.5 68 +47 +57 опасность
перегрева
1010.2 1009.9
09 23.04 З 1 10 км 5/5 600 м
[Sc]
+32.4 +26.3 70 +49 +59 опасность
перегрева
1007.9 1007.6
12 23.04 нст 1 10 км 6/6 600 м
[Sc]
+32.0 +26.4 72 +48 +49 опасность
перегрева
1006.1 1005.8 +33.4
15 23.04 нст 1 4000 м 4/4 600 м
[Sc]
+30.0 +26.1 80 +45 +45 опасность
перегрева
1007.5 1007.2
18 23.04 З 1 4000 м 5/5 600 м
[Sc]
+29.4 +25.1 78 +43 +43 опасность
перегрева
1010.1 1009.8
21 23.04 нст 1 4000 м 4/4 600 м
[Sc]
+29.0 +25.3 80 +42 +42 опасность
перегрева
1008.8 1008.5
00 24.04 нст 1 4000 м 3/3 600 м
[Sc]
+28.6 +25.5 83 +42 +42 опасность
перегрева
1007.7 1007.4
03 24.04 СЗ 1 10 км 5/5 600 м
[Sc]
+30.6 +26.4 78 +47 +50 опасность
перегрева
1010.2 1009.9 +26.2 +33.4
06 24.04 нст 2 10 км 5/5 600 м
[Sc]
+34.2 +27.1 67 +53 +64 опасность
перегрева
1010.8 1010.5
09 24.04 нст 2 10 км 5/5 600 м
[Sc]
+35.0 +27.3 64 +53 +62 опасность
перегрева
1008.0 1007.7
12 24.04 З 1 10 км 5/5 600 м
[Sc]
+33.6 +27.6 71 +53 +55 опасность
перегрева
1006.8 1006.5 +36.1
15 24.04 нст 2 4000 м 4/4 600 м
[Sc]
+30.0 +26.1 80 +45 +45 опасность
перегрева
1009.1 1008.8
18 24.04 нст 1 4000 м 5/5 600 м
[Sc]
+29.6 +26.0 81 +44 +44 опасность
перегрева
1009.9 1009.6
21 24.04 нст 1 4000 м 4/4 600 м
[Sc]
+29.2 +25.8 82 +44 +44 опасность
перегрева
1008.6 1008.3
00 25.04 нст 2 4000 м 5/5 600 м
[Sc]
+28.8 +25.4 82 +42 +42 опасность
перегрева
1008.4 1008.1
03 25.04 штиль 0 10 км 5/5 600 м
[Sc]
+30.4 +27.6 85 +49 +53 опасность
перегрева
1010.6 1010.3 +26.4 +36.1
06 25.04 З 1 10 км 6/6 600 м
[Sc]
+33.0 +26.0 67 +49 +58 опасность
перегрева
1011.5 1011.2
09 25.04 З 2 10 км 6/6 600 м
[Sc]
+33.6 +27.3 70 +53 +60 опасность
перегрева
1009.7 1009.4
12 25.04 нст 1 10 км 5/5 600 м
[Sc]
+32.0 +26.7 74 +49 +51 опасность
перегрева
1008.0 1007.7 +34.1
15 25.04 З 1 4000 м 5/5 600 м
[Sc]
+30.2 +26.0 78 +45 +45 опасность
перегрева
1008.5 1008.2
18 25.04 З 1 4000 м 6/6 600 м
[Sc]
+29.4 +26.3 83 +45 +45 опасность
перегрева
1009.7 1009.4
21 25.04 З 1 4000 м 5/5 600 м
[Sc]
+29.2 +25.2 79 +42 +42 опасность
перегрева
1008.4 1008.1
00 26.04 штиль 0 4000 м 5/5 600 м
[Sc]
+28.6 +25.2 82 +42 +42 опасность
перегрева
1007.5 1007.2

 

Местоположение метеостанции Остров Амини (Лакшадвип, Индия): широта 11.12 долгота 72.73 высота над уровнем моря 3 м.

В архиве по умолчанию представлена погода на Острове Амини за последнюю неделю. Архивные данные за месяц целиком и за предыдущие месяцы, начиная с января 2011 года, Вы можете получить, выбрав интересующий диапазон дат из раскрывающегося списка и нажав кнопку "Ввод!".


*Определитесь, кто Вы:
робот инопланетянин человек

Внимание! Время в таблицах - всемирное. Для получения местного времени необходимо прибавить поправку, которая равна 5.5 ч.

Смотрите также архив погоды в соседних городах и на ближайших метеорологических станциях:

Погода на Агати (Лакшадвип, Индия) (68 км)
Погода в Каннаноре (Керала, Индия) (294 км)
Погода в Мангалоре (Карнатака, Индия) (306 км)
Погода в Мангалор аэропорт (Карнатака, Индия) (308 км)
Погода на Миникое (Лакшадвип, Индия) (317 км)
Погода в Кожикоде (Керала, Индия) (333 км)
Погода в Карипере (Керала, Индия) (351 км)
Погода в Мадикери (Карнатака, Индия) (357 км)
Погода на Агамбе (Карнатака, Индия) (368 км)
Погода в Ширали (Карнатака, Индия) (382 км)

Пояснения к столбцам:

Ветер - указаны скорость ветра в м/с - средняя за 10 мин, порывы в срок и между сроками (в фигурных скобках) и направление, откуда дует ветер: С - северный, СВ - северо-восточный, В - восточный, ЮВ - юго-восточный, Ю - южный, ЮЗ - юго-западный, З - западный, СЗ - северо-западный.
Видимость - горизонтальная дальность видимости в метрах или километрах. При видимости от 1 до 10 км при отсутствии осадков обычно наблюдается дымка, при ухудшении видимости до 1 км и менее - туман. В сухую погоду видимость может ухудшаться дымом, пылью или мглою.
Явления - указаны атмосферные явления, наблюдавшиеся в срок или в последний час перед сроком; фигурными скобками обозначены явления, наблюдавшиеся между сроками (за 1-3 часа до срока); квадратными скобками обозначены град или гололедные отложения с указанием их диаметра в мм.
Облачность - указаны через наклонную черту общая и нижняя облачность в баллах и высота нижней границы облаков в метрах; квадратными скобками обозначены формы облаков: Ci - перистые, Cs - перисто-слоистые, Cc - перисто-кучевые, Ac - высококучевые, As - высокослоистые, Sc - слоисто-кучевые, Ns - слоисто-дождевые, Cu - кучевые, Cb - кучево-дождевые. Подробнее классификацию облаков см. в Атласе облаков (PDF).
T - Температура воздуха - температура, измеренная на высоте 2 м над землей.
Td - Температура точки росы - температура, при понижении до которой содержащийся в воздухе водяной пар достигнет насыщения.
f - Относительная влажность воздуха - влажноcть воздуха, измеренная на высоте 2 м над землей.
Te - Эффективная температура - температура, которую ощущает одетый по сезону человек в тени. Характеристика душности погоды. При расчете учитывается влияние влажности воздуха и скорости ветра на теплоощущения человека.
Tes - Эффективная температура на солнце - температура, которую ощущает человек, с поправкой на солнечный нагрев. Характеристика знойности погоды. Зависит от высоты солнца над горизонтом, облачности и скорости ветра. Ночью, в пасмурную погоду, а также при ветре 12 м/с и более поправка равна нулю.
P - Атмосферное давление - приведенное к уровню моря атмосферное давление.
Po - Атмосферное давление - измеренное на уровне метеостанции атмосферное давление.
Tmin - Минимальная температура - минимум температуры воздуха на высоте 2 м над землей.
Tmax - Максимальная температура - максимум температуры воздуха на высоте 2 м над землей.
R - Количество осадков - Количество выпавших осадков за период времени, мм. При наведении курсора мыши на число - период времени, за который выпало указанное количество осадков.
R24 - Количество осадков - Количество выпавших осадков за 24 часа, мм.
S - Снежный покров - Высота снежного покрова, см. При наведении курсора мыши на число - состояние снежного покрова и степень покрытия местности в баллах.